This demonstration page uses our WeatherBlox Daily Observations layout. Learn more.

Left ArrowRight Arrow

Hourly Observations for October 22, 2018

Temp ( °F °C ) Dew Point ( °F °C ) Humidity (%) Winds ( mph kmh ) Pressure ( in mb ) Visibility ( mi km ) Precip ( " mm )
12:53 am 00:53 Clear 53 11.7 38 3.3 57 57 SSW 7 11 30.00 1016 10 16 0.00 0.00
1:53 am 01:53 Clear 48 8.9 38 3.3 68 68 Calm 30.02 1017 10 16 0.00 0.00
2:53 am 02:53 Clear 46 7.8 38 3.3 73 73 Calm 30.01 1016 10 16 0.00 0.00
3:53 am 03:53 Clear 43 6.1 36 2.2 76 76 Calm 30.02 1017 10 16 0.00 0.00
4:53 am 04:53 Clear 40 4.4 36 2.2 86 86 N 3 6 30.04 1017 10 16 0.00 0.00
5:53 am 05:53 Clear 40 4.4 35 1.7 83 83 Calm 30.05 1018 10 16 0.00 0.00
6:53 am 06:53 Clear 40 4.4 37 2.8 89 89 NNE 6 9 30.07 1018 10 16 0.00 0.00
7:53 am 07:53 Sunny 40 4.4 37 2.8 89 89 NE 6 9 30.09 1019 7 11 0.00 0.00
8:53 am 08:53 Sunny 44 6.7 39 3.9 83 83 NE 9 15 30.12 1020 10 16 0.00 0.00
9:53 am 09:53 Sunny 50 10 40 4.4 68 68 NE 13 20 30.14 1021 10 16 0.00 0.00
10:53 am 10:53 Sunny 56 13.3 41 5 57 57 ENE 14 22 30.14 1021 10 16 0.00 0.00
11:53 am 11:53 Sunny 62 16.7 39 3.9 43 43 ENE 13 20 30.15 1021 10 16 0.00 0.00
12:53 pm 12:53 Sunny 65 18.3 36 2.2 34 34 ENE 14 22 30.15 1021 10 16 0.00 0.00
1:53 pm 13:53 Sunny 67 19.4 35 1.7 31 31 ENE 14 22 30.15 1021 10 16 0.00 0.00
2:53 pm 14:53 Sunny 68 20 34 1.1 28 28 ENE 13 20 30.14 1021 10 16 0.00 0.00
3:53 pm 15:53 Sunny 69 20.6 31 -0.6 24 24 ENE 14 22 30.14 1021 10 16 0.00 0.00
4:53 pm 16:53 Sunny 68 20 28 -2.2 22 22 ENE 12 19 30.16 1021 10 16 0.00 0.00
5:53 pm 17:53 Sunny 65 18.3 28 -2.2 25 25 ENE 8 13 30.17 1022 10 16 0.00 0.00
6:53 pm 18:53 Hazy 57 13.9 30 -1.1 36 36 ENE 3 6 30.20 1023 4 6 0.00 0.00
7:53 pm 19:53 Hazy 51 10.6 30 -1.1 44 44 ENE 3 6 30.23 1024 5 8 0.00 0.00
8:53 pm 20:53 Clear 48 8.9 31 -0.6 52 52 NNE 6 9 30.24 1024 8 13 0.00 0.00
9:53 pm 21:53 Clear 47 8.3 30 -1.1 52 52 NE 5 7 30.25 1024 8 13 0.00 0.00
10:53 pm 22:53 Clear 46 7.8 29 -1.7 51 51 NE 3 6 30.27 1025 9 14 0.00 0.00
11:53 pm 23:53 Clear 43 6.1 29 -1.7 58 58 ENE 3 6 30.27 1025 10 16 0.00 0.00

Powered by AerisWeather